Regional Weather Roundup
Issued by NWS Charleston, WV

Home | Current Version | Previous Version | Text Only | Print | Product List | Glossary Off
Versions: 1 2 3 4 5 6 7 8 9 10 11 12 13 14 15 16 17 18 19 20 21 22 23 24 25 26 27 28 29 30 31 32 33 34 35 36 37 38 39 40 41 42 43 44 45 46 47 48 49 50

000
ASUS41 KRLX 301110
RWRRLX
West Virginia Regional Weather Roundup
National Weather Service Charleston WV
700 AM EDT MON MAR 30 2015

Note: "fair" indicates few or no clouds below 12,000 feet with no
significant weather and/or obstructions to visibility.

WVZ003-301200-
Northern Panhandle of West Virginia

CITY           SKY/WX    TMP DP  RH WIND       PRES   REMARKS
WHEELING       CLOUDY    42  34  73 W16G24    29.88R
$$

WVZ009-301200-
Northwest West Virginia

CITY           SKY/WX    TMP DP  RH WIND       PRES   REMARKS
PARKERSBURG    CLOUDY    46  37  71 NW16G25   29.98R
$$

WVZ006-301200-
Western West Virginia

CITY           SKY/WX    TMP DP  RH WIND       PRES   REMARKS
HUNTINGTON     CLOUDY    48  42  80 NW7       29.98R
$$

WVZ015-301200-
West Central West Virginia

CITY           SKY/WX    TMP DP  RH WIND       PRES   REMARKS
CHARLESTON     LGT RAIN  46  43  89 W5        29.98R FOG
$$

WVZ022-031-301200-
North Central West Virginia

CITY           SKY/WX    TMP DP  RH WIND       PRES   REMARKS
CLARKSBURG     CLOUDY    40  39  97 SW12      29.91R FOG
MORGANTOWN     LGT RAIN  40  35  83 SW7       29.91R FOG
$$

WVZ025-035-042-045-301200-
Southern West Virginia

CITY           SKY/WX    TMP DP  RH WIND       PRES   REMARKS
BECKLEY        CLOUDY    41  38  89 W14       29.96R
LOGAN          CLOUDY    45  43  93 SW6       29.96R FOG
BLUEFIELD      CLOUDY    42  37  82 W16G22    29.97R HAZE
LEWISBURG      CLOUDY    39  37  94 CALM      29.95R FOG
$$

WVZ047-301200-
Northern Mountains of West Virginia

CITY           SKY/WX    TMP DP  RH WIND       PRES   REMARKS
ELKINS         CLOUDY    40  36  86 SW5       29.91R
$$

WVZ052-301200-
Eastern Panhandle of West Virginia

CITY           SKY/WX    TMP DP  RH WIND       PRES   REMARKS
MARTINSBURG    CLOUDY    42  18  37 CALM      29.88F
PETERSBURG     CLOUDY    48  32  55 W3        29.87S
$$


USA.gov is the U.S. government's official web portal to all federal, state and local government web resources and services.